Theta_e
301 303 303 301 301 301 301 303 303 303 302 303 303 303 303 303 302 302 302 303 303 303 303 303 303 303 303 303 304 304 305 309 307 320 326 327 327 327 328 328 327 327 326 325
302 302 300 300 301 300 299 300 301 301 301 303 302 301 301 301 300 299 298 299 299 301 303 303 303 302 302 303 304 304 305 309 317 318 323 326 327 327 327 327 326 326 324 325
301 300 299 300 300 300 299 299 301 300 298 298 298 300 302 300 299 296 295 296 296 297 299 301 302 302 302 303 304 305 306 313 319 324 328 327 326 325 325 325 325 325 324 324
300 299 299 300 300 299 300 298 297 296 298 301 304 308 300 297 294 293 293 293 294 295 296 298 301 302 303 303 304 305 308 320 325 326 328 326 325 325 325 324 325 324 322 324
300 299 298 300 299 298 299 296 295 296 298 299 300 304 298 294 292 292 291 291 292 293 296 297 299 301 302 303 304 305 310 321 325 328 327 327 327 326 325 325 324 323 322 323
299 298 298 298 298 296 295 296 299 303 303 306 306 305 297 293 292 290 288 287 289 301 298 299 299 300 302 303 304 305 317 319 320 322 324 319 318 322 324 324 324 323 323 322
300 299 298 298 298 295 297 297 303 304 305 305 304 301 296 291 289 288 286 286 296 303 301 301 302 303 302 303 308 312 308 304 306 309 308 308 308 313 305 306 306 306 303 309
301 302 298 298 297 296 295 295 297 301 302 303 300 299 299 289 287 286 284 286 293 297 300 303 305 308 311 309 306 304 303 300 299 299 298 298 297 298 296 299 296 295 295 295
299 301 298 298 297 294 294 294 293 296 298 301 300 295 297 288 285 284 283 285 289 293 296 297 299 300 300 301 301 299 297 295 295 295 294 294 293 293 292 292 292 292 292 293
298 299 299 298 297 294 292 292 296 297 299 301 300 295 289 285 284 283 283 284 287 289 292 294 294 294 294 294 294 293 292 291 291 291 291 290 290 290 292 290 290 289 290 290
299 298 301 299 298 294 292 292 293 294 295 299 301 295 286 284 283 282 282 283 285 287 289 291 292 291 290 290 290 289 289 289 287 287 287 287 287 287 287 287 286 286 286 287
298 298 303 299 298 294 291 290 292 297 295 293 295 295 286 283 282 282 281 282 284 285 286 288 288 288 287 287 286 286 286 285 285 284 284 284 284 284 284 283 283 282 283 283
298 301 305 303 298 295 293 291 290 291 292 292 296 297 287 283 281 280 280 280 282 282 283 284 285 285 285 284 284 283 283 283 283 283 283 282 282 281 281 281 280 279 278 278
296 299 300 301 299 296 293 291 290 290 295 292 289 288 285 281 280 279 278 279 280 280 281 282 282 282 282 282 282 282 282 282 281 281 281 281 280 280 280 280 279 279 279 278
297 302 296 297 297 297 294 291 288 288 287 292 288 287 284 280 279 277 277 278 278 279 279 279 280 281 281 281 281 281 281 280 280 280 279 279 279 279 279 279 278 278 278 278
296 303 296 297 296 295 300 293 291 288 287 287 288 288 284 280 278 276 276 277 276 277 278 279 279 280 280 281 280 280 280 279 279 279 278 278 278 278 278 278 279 278 278 277
297 299 301 307 300 298 301 296 291 290 287 286 290 286 284 280 277 276 275 276 276 276 277 277 278 279 279 280 279 279 278 278 278 278 277 277 277 277 277 277 277 277 278 278
296 297 298 309 306 307 302 293 291 289 287 286 287 286 285 280 278 277 276 276 276 276 277 277 277 277 278 277 278 277 277 277 276 276 276 276 276 275 275 275 275 276 276 276
294 296 305 312 308 305 304 297 296 296 294 287 286 285 286 284 283 279 276 276 275 275 275 276 275 276 277 277 276 276 276 275 275 275 274 275 275 274 274 274 274 274 274 274
295 293 302 307 310 309 306 295 291 292 303 288 285 285 284 287 289 283 275 275 274 274 274 275 275 275 275 276 276 276 275 275 274 274 273 273 273 273 273 273 273 273 273 273
300 300 308 308 311 308 297 292 291 304 304 289 286 283 284 287 282 277 275 275 274 275 275 275 275 275 275 275 275 274 274 274 273 273 273 273 273 272 272 272 272 272 272 272
306 308 308 302 310 310 292 291 298 294 287 284 283 281 279 277 276 275 275 275 274 274 274 274 274 274 274 274 274 273 273 273 273 273 272 272 272 272 272 272 272 272 272 272
307 302 308 305 309 292 291 291 286 286 286 285 283 280 278 277 276 277 276 275 275 274 274 274 273 272 272 272 273 272 271 272 272 272 272 272 272 272 272 273 272 272 272 272
297 294 297 297 295 293 289 286 286 286 287 286 284 281 280 279 278 277 276 275 274 274 273 273 272 271 271 271 271 272 272 272 272 272 271 271 271 271 271 271 272 272 272 272
299 295 297 297 293 290 289 288 287 286 287 285 283 282 281 279 278 277 276 275 274 273 272 272 272 271 271 271 271 271 271 271 271 270 270 270 270 270 270 270 271 270 270 272
296 299 299 306 297 298 296 290 288 286 286 285 283 281 280 279 278 277 275 274 273 272 271 271 271 271 270 270 271 271 271 271 271 270 270 270 269 269 269 269 269 268 269 269
Wind_Speed
5 5 9 14 13 14 15 19 24 24 23 14 15 16 17 14 13 14 16 16 14 15 16 20 18 16 19 16 17 18 16 21 21 18 11 15 16 19 15 12 24 29 23 23
2 5 9 9 10 14 22 24 23 24 16 8 14 19 17 2 4 12 15 14 15 15 17 13 16 15 18 15 16 17 17 22 19 20 19 12 17 18 26 21 26 24 21 18
3 6 10 10 15 19 21 23 17 20 23 25 19 20 4 5 9 18 17 16 16 16 14 15 14 15 17 15 15 15 16 19 19 19 12 15 19 18 17 23 24 23 21 20
3 8 12 14 16 22 20 17 25 25 13 5 3 1 13 13 19 21 21 22 21 19 16 14 14 14 15 14 13 13 15 14 16 14 18 22 18 16 19 30 29 32 27 23
7 11 16 13 20 24 16 27 23 21 14 9 14 5 9 16 26 29 29 28 25 21 16 14 13 13 15 13 12 12 14 16 14 16 23 20 16 15 18 19 24 26 32 32
7 8 6 11 22 19 26 21 13 6 5 3 11 4 12 14 21 27 30 31 32 13 5 10 13 14 16 13 12 10 3 12 19 19 16 15 10 9 11 17 22 23 24 24
13 0 10 16 21 10 20 19 4 2 4 5 10 7 8 21 21 22 26 28 24 18 7 4 6 6 6 6 5 18 15 21 28 32 32 24 27 25 27 23 22 20 22 23
8 4 12 11 10 17 15 11 5 6 5 5 9 7 4 22 20 21 20 20 25 23 20 19 18 16 17 20 23 24 18 28 34 35 33 30 26 36 33 33 32 29 31 33
7 4 7 6 10 20 11 10 10 5 7 3 4 7 7 28 25 27 28 29 27 23 19 17 16 20 23 24 27 20 23 36 35 37 37 34 32 42 41 38 39 35 33 38
4 7 4 6 7 19 8 10 4 4 7 5 5 5 9 25 24 26 28 27 25 23 21 18 16 22 23 26 22 24 37 45 37 36 35 36 39 40 52 46 46 41 38 42
3 2 11 4 12 20 13 7 5 2 5 5 6 3 7 16 18 19 20 22 21 21 19 18 15 23 27 23 22 30 41 50 37 36 37 35 38 43 49 50 44 43 42 48
4 4 6 2 5 10 20 12 5 4 5 3 4 4 11 16 15 16 18 20 20 20 19 17 19 24 24 19 28 40 42 44 35 34 36 40 40 49 53 50 51 45 50 51
7 5 7 0 4 11 9 19 8 1 3 7 5 3 13 15 16 17 18 19 18 20 21 18 20 19 20 25 35 40 39 39 34 37 40 41 45 46 45 46 42 40 45 47
3 3 4 6 1 4 12 16 15 2 2 3 3 13 16 16 16 17 17 19 17 17 19 19 17 19 22 31 37 35 39 32 34 39 41 42 42 42 42 41 42 40 40 44
3 2 2 3 4 2 10 13 12 10 6 3 8 7 13 13 14 13 13 15 18 20 19 17 12 15 25 34 32 31 34 35 35 39 40 40 39 41 41 40 44 39 40 41
3 1 2 3 6 7 9 13 11 7 7 4 6 4 10 7 8 14 16 15 16 15 16 15 15 23 29 26 26 29 32 33 35 39 38 36 35 37 36 40 36 36 41 40
4 2 2 6 3 4 1 7 7 5 6 2 5 6 8 8 12 12 14 13 13 13 12 12 15 22 24 26 27 30 32 32 35 37 34 33 34 38 36 34 36 36 34 31
3 1 1 3 5 6 2 6 8 5 4 4 1 4 4 6 6 8 9 9 8 8 10 14 19 22 23 25 28 28 30 32 34 34 33 32 33 34 32 34 35 32 29 30
5 2 0 1 3 3 2 6 4 3 4 2 2 4 4 4 4 9 10 8 10 12 13 14 17 18 22 25 25 29 31 31 33 32 30 29 30 30 30 31 29 27 28 27
4 3 2 1 2 2 2 5 5 2 3 5 3 1 1 3 4 3 8 10 10 12 13 15 17 19 24 23 22 27 29 30 29 27 29 30 30 30 31 27 25 24 25 23
3 3 2 2 2 1 3 6 6 3 4 8 6 3 4 3 3 2 3 6 8 9 11 13 16 20 20 19 22 26 26 27 22 24 26 27 28 28 26 25 24 23 23 22
3 4 3 1 2 3 7 7 4 2 4 9 8 6 9 9 6 4 4 5 7 9 11 12 15 17 15 16 19 22 24 17 19 22 24 25 25 22 23 23 21 20 18 19
2 2 1 3 1 2 6 1 2 4 6 7 10 9 11 10 7 8 7 8 8 8 10 10 13 15 15 16 16 21 17 20 24 25 24 23 23 22 21 21 18 16 16 16
4 4 2 2 4 4 6 4 7 6 8 13 12 15 14 13 12 11 9 10 10 9 9 10 11 13 14 15 18 20 20 22 22 23 21 19 20 18 16 15 13 14 13 11
1 8 5 3 2 1 6 11 14 11 10 12 15 15 13 14 13 14 11 14 13 12 10 9 11 13 14 15 17 18 19 18 20 20 18 17 15 14 13 13 10 9 13 12
8 8 7 6 13 5 13 17 18 16 16 14 14 14 15 17 13 16 13 13 14 13 14 14 15 16 14 15 16 16 17 16 16 15 13 12 11 11 10 8 9 12 11 11
Wind_Direction
2 297 11 345 322 313 302 290 286 287 294 289 273 277 290 327 14 5 354 338 311 285 277 268 273 277 271 269 270 272 274 273 259 222 224 239 202 212 193 222 177 177 182 178
5 43 340 329 306 311 316 305 295 293 320 313 291 288 297 95 44 26 360 347 334 320 324 286 273 269 266 265 265 270 278 271 233 227 232 228 217 193 202 205 195 178 185 192
8 340 324 306 314 325 323 305 316 317 317 304 285 278 207 4 27 1 349 340 331 319 306 298 294 277 267 257 258 271 284 261 248 233 188 196 186 176 166 176 186 185 186 205
339 336 335 316 315 332 315 334 311 301 299 271 4 49 40 12 358 351 348 341 329 314 298 284 276 275 264 254 259 277 285 239 223 212 196 180 178 169 179 180 188 197 207 209
4 339 344 330 330 331 307 320 306 288 264 265 256 231 19 16 358 350 346 339 326 307 280 273 271 269 266 266 261 275 278 249 212 183 176 189 178 186 186 190 195 194 203 212
300 301 317 327 331 330 337 322 297 279 184 167 28 252 38 15 354 344 340 336 327 343 276 270 268 259 251 250 252 271 19 82 104 112 123 94 98 105 152 180 190 188 192 182
327 0 345 5 337 340 346 349 345 64 42 34 358 67 66 12 358 350 337 329 335 7 9 313 278 248 234 260 344 78 71 70 79 91 90 88 91 89 74 79 82 92 89 98
347 333 8 4 17 343 346 1 14 344 3 343 31 10 88 12 355 348 339 338 1 4 10 15 13 21 62 68 72 76 77 77 72 78 77 79 77 86 78 85 77 67 79 79
334 294 0 43 358 12 334 5 312 289 221 264 28 8 148 348 351 350 354 357 357 359 7 13 15 34 46 56 66 78 87 78 70 76 79 76 78 81 78 77 81 79 75 88
343 295 6 24 329 21 11 1 16 334 352 21 68 56 340 346 343 345 351 349 350 355 6 14 18 34 42 53 70 81 76 73 65 70 75 78 79 83 86 80 77 77 78 82
289 236 319 344 26 27 14 21 354 261 14 336 329 47 5 349 346 344 342 346 350 355 3 13 18 36 44 54 63 72 72 71 65 69 71 74 77 81 85 81 77 78 78 79
28 287 295 38 156 76 37 14 358 342 5 18 271 63 31 6 354 352 347 351 353 359 6 15 19 36 42 49 62 64 69 75 72 75 76 72 73 76 78 75 77 74 78 80
339 353 322 95 172 18 27 11 5 65 278 27 333 43 30 5 360 1 359 354 357 3 9 16 27 26 40 52 60 61 66 71 73 74 73 72 72 71 74 77 78 77 79 79
289 10 38 64 51 348 5 5 14 4 41 319 23 310 0 -0 353 356 359 0 2 12 19 13 22 25 43 56 59 65 69 74 77 76 74 73 73 76 77 78 78 74 75 78
0 338 282 232 252 29 38 13 15 49 24 28 319 344 5 354 355 351 2 10 7 11 16 18 15 27 51 52 58 67 73 72 75 77 75 74 76 76 77 78 77 78 75 76
358 352 290 248 216 233 27 29 357 20 35 20 312 356 33 24 3 3 7 17 12 12 12 12 18 37 44 54 67 70 72 73 75 74 74 76 78 80 78 77 78 76 74 75
334 327 306 323 345 189 195 22 30 328 33 342 18 333 13 23 29 18 2 9 9 3 11 16 27 41 50 63 68 67 71 74 74 74 74 74 75 75 75 78 77 73 72 72
312 292 285 319 315 21 27 123 131 103 16 36 268 320 2 75 73 37 13 9 5 0 25 26 34 46 51 58 65 72 72 72 72 72 71 72 75 76 76 76 75 75 75 71
213 268 272 10 23 334 227 151 193 210 28 11 341 346 309 206 198 59 23 24 23 25 27 34 39 49 62 65 69 72 72 72 71 68 70 73 79 80 78 75 74 73 73 70
187 233 281 172 222 271 87 129 148 73 76 159 152 171 358 287 89 61 6 19 31 37 34 39 50 57 60 63 73 73 70 70 68 70 72 79 82 80 75 74 75 73 69 67
204 194 241 174 244 205 96 139 160 282 128 145 158 164 175 121 78 73 44 61 58 57 66 69 70 69 70 76 78 73 73 71 76 80 84 84 85 86 84 84 76 74 69 67
239 183 177 126 225 270 149 126 203 128 75 125 129 116 102 108 122 127 98 76 80 78 76 73 76 71 71 79 87 86 80 86 93 95 95 92 86 80 81 78 75 68 58 55
262 280 315 229 359 104 189 106 100 154 135 153 142 151 143 142 162 158 142 127 110 100 92 88 91 86 75 78 87 90 94 105 108 104 96 89 86 80 72 66 58 55 52 47
214 186 248 303 166 202 200 187 168 174 148 152 151 156 162 159 160 156 152 150 140 131 121 116 110 102 97 101 103 105 113 114 110 100 92 88 85 80 70 68 63 60 50 44
82 155 191 248 157 151 206 200 175 162 144 150 153 163 166 160 166 165 163 163 159 150 139 134 128 121 118 121 120 121 121 117 107 100 93 86 84 82 78 77 69 66 59 48
189 181 185 213 175 173 185 182 171 164 165 163 162 167 173 176 170 170 168 166 160 158 158 154 148 139 133 130 128 128 127 121 114 105 100 98 93 85 80 71 56 52 46 41